sat.trackr.live / text

‹ back to catalog

YUXING-3 06

NORAD 68199 · 2026-052B

PAYLOAD ACTIVE UNKNOWN

§ Identity

Operator
Country
PRC
Launch date
2026-03-16
Launch site
JSC
Launch vehicle
Mass (kg)
RCS (m²)

External: N2YO · Heavens-Above · Gunter

§ Orbital elements

Epoch: 2026-05-24T21:59:00.274560Z

Period
95.33 min
Inclination
97.5331°
Eccentricity
0.0013268
Mean motion
15.10615501 rev/d
Perigee alt
525.2 km
Apogee alt
543.5 km
Semi-major
6,912.5 km
B*
2.2381e-4
RAAN
220.0592°
Arg perigee
36.7784°
Mean anomaly
323.4353°
Rev number
1,053

§ Raw data

YUXING-3 061 68199U 26052B   26144.91597540  .00003641  00000+0  22381-3 0  99972 68199  97.5331 220.0592 0013268  36.7784 323.4353 15.10615501 10535

JSON: /api/v1/satellites/68199 · /tle

For live sub-satellite position, see the globe view (requires WebGL).

§ Visibility from observer

Set your observer location to see the next 7 days of passes ≥ 10°. The values pass through the URL so the page stays shareable.

No JS? Fill the form by hand. The geolocation button needs JavaScript.